Flag for Germany Weather past 2 weeks in Frankfurt, Hesse, Germany

Now
68 °F

Broken clouds.


Feels Like: 68 °F
Forecast: 54 / 70 °F
Wind: 3 mph from South

Location: Frankfurt-M-Flughafen Airport

Current Time: Sep 30, 2014 at 7:54:16 PM

Latest Report: Sep 30, 2014 at 7:20 PM


Visibility: N/A

Pressure: 30.27 "Hg

Humidity: 78%

Dew point: 61 °F

Location of FrankfurtLocation

Historic Weather in Frankfurt — Graph

°F

Frankfurt temperature yesterday

Maximum temperature yesterday: 73 °F (at 2:50 PM)
Minimum temperature yesterday: 52 °F (at 3:50 AM)
Average temperature yesterday: 63 °F

Past Weeks' High & Low Weather Summary

 TemperatureHumidityPressure
High77 °F (Sep 17, 3:50 PM)100% (Sep 15, 11:20 PM)30.39 "Hg (Sep 15, 11:20 PM)
Low43 °F (Sep 23, 2:50 AM)47% (Sep 17, 3:50 PM)29.86 "Hg (Sep 17, 4:50 PM)
Average61 °F84%30.08 "Hg
* Reported Sep 15 6:20 PM — Sep 30 6:50 PM, Frankfurt, Weather by CustomWeather, © 2014

Note: Actual official high and low records may vary slightly from our data, if they occured in-between our weather recording intervals... More about our weather records

Advertising

Frankfurt weather history for previous 24 hours

 ConditionsComfort  
Time TempWeatherWind HumidityBarometerVisibility
6:50 PM
Sep 30
68 °FScattered showers. Broken clouds.2 mph78%30.27 "HgN/A
6:20 PM68 °FScattered showers. Broken clouds.3 mph78%30.27 "HgN/A
5:50 PM68 °FScattered showers. Broken clouds.5 mph73%30.27 "HgN/A
5:20 PM68 °FScattered showers. Partly sunny.6 mph73%30.27 "HgN/A
4:50 PM70 °FPartly sunny.7 mph69%30.27 "HgN/A
4:20 PM70 °FPartly sunny.6 mph69%30.27 "HgN/A
3:50 PM70 °FBroken clouds.5 mph69%30.27 "HgN/A
3:20 PM70 °FBroken clouds.5 mph69%30.27 "HgN/A
2:50 PM68 °FBroken clouds.5 mph73%30.27 "HgN/A
2:20 PM68 °FBroken clouds.5 mph73%30.27 "HgN/A
1:50 PM68 °FBroken clouds.5 mph73%30.27 "HgN/A
1:20 PM66 °FPartly sunny.5 mph78%30.30 "HgN/A
12:50 PM66 °FBroken clouds.3 mph78%30.30 "HgN/A
12:20 PM66 °FBroken clouds.5 mph83%30.30 "HgN/A
11:50 AM66 °FBroken clouds.1 mph78%30.27 "HgN/A
11:20 AM66 °FPartly sunny.2 mph78%30.27 "HgN/A
10:50 AM66 °FBroken clouds.5 mph83%30.27 "HgN/A
10:20 AM64 °FPartly sunny.6 mph88%30.27 "HgN/A
9:50 AM63 °FPartly sunny.6 mph88%30.27 "HgN/A
9:20 AM63 °FPartly sunny.6 mph94%30.27 "HgN/A
8:50 AM63 °FScattered clouds.5 mph94%30.27 "HgN/A
8:20 AM63 °FPassing clouds.7 mph94%30.27 "HgN/A
7:50 AM63 °FPassing clouds.7 mph88%30.24 "HgN/A
7:20 AM63 °FPartly cloudy.7 mph94%30.24 "HgN/A
6:50 AM61 °FPartly cloudy.3 mph100%30.24 "HgN/A
6:20 AM63 °FPassing clouds.3 mph94%30.24 "HgN/A
5:50 AM63 °FPartly cloudy.5 mph94%30.24 "HgN/A
5:20 AM63 °FPassing clouds.6 mph94%30.24 "HgN/A
4:50 AM63 °FPassing clouds.2 mph94%30.24 "HgN/A
4:20 AM63 °FPassing clouds.2 mph94%30.24 "HgN/A
3:50 AM64 °FPassing clouds.1 mph88%30.24 "HgN/A
3:20 AM64 °FPassing clouds.5 mph88%30.24 "HgN/A
2:50 AM64 °FPassing clouds.2 mph88%30.24 "HgN/A
2:20 AM63 °FPassing clouds.5 mph94%30.24 "HgN/A
1:50 AM64 °FPassing clouds.3 mph88%30.24 "HgN/A
1:20 AM64 °FClear.5 mph88%30.24 "Hg10 mi
12:50 AM64 °FClear.2 mph88%30.24 "Hg10 mi
12:20 AM64 °FClear.3 mph88%30.24 "Hg10 mi
11:50 PM
Sep 29
64 °FClear.3 mph88%30.24 "Hg10 mi
11:20 PM64 °FPassing clouds.5 mph88%30.24 "HgN/A
10:50 PM66 °FPartly cloudy.2 mph83%30.24 "HgN/A
10:20 PM68 °FClear.3 mph73%30.24 "Hg10 mi
9:50 PM68 °FClear.3 mph73%30.24 "Hg10 mi
9:20 PM70 °FPartly cloudy.5 mph73%30.24 "HgN/A
8:50 PM68 °FLight rain. Partly cloudy.1 mph78%30.24 "HgN/A
8:20 PM68 °FLight rain. Passing clouds.1 mph78%30.21 "HgN/A
7:50 PM70 °FLight rain. Partly sunny.1 mph73%30.24 "HgN/A
7:20 PM72 °FSunny.5 mph69%30.21 "Hg10 mi
Weather by CustomWeather, © 2014

See weather overviewHow to use our weather pages